Location: Rochester
(43.1547°N, 77.6158°W)
Time: 03:30:16
(UTC-05:00)

ISS - Visible Passes

Search period start: 22 February 2018 00:00
Search period end: 04 March 2018 00:00
Orbit: 403 x 407 km, 51.6° (Epoch: 22 February)

Date Brightness Start Highest point End Pass type
(mag) Time Alt. Az. Time Alt. Az. Time Alt. Az.
25 Feb -0.8 05:51:40 10° SSE 05:53:26 14° SE 05:55:12 10° E visible
27 Feb -2.1 05:42:11 10° SSW 05:45:07 31° SE 05:48:03 10° ENE visible
28 Feb -1.3 04:51:52 15° SSE 04:53:02 17° SE 04:55:15 10° E visible
01 Mar -3.7 05:34:50 20° SW 05:36:55 73° SE 05:40:11 10° ENE visible
02 Mar -2.6 04:44:56 38° SE 04:44:56 38° SE 04:47:45 10° ENE visible
03 Mar -0.3 03:54:55 11° E 03:54:55 11° E 03:55:04 10° E visible
03 Mar -3.5 05:27:34 32° W 05:28:46 52° NNW 05:32:00 10° NE visible
